Regional Weather Roundup
Issued by NWS

Home | Current Version | Previous Version | Text Only | Print | Product List | Glossary On
Versions: 1 2 3 4 5 6 7 8 9 10 11 12 13 14 15 16 17 18 19 20 21 22 23 24 25 26 27 28 29 30 31 32 33 34 35 36 37 38 39 40 41 42 43 44 45 46 47 48 49 50
000
ASUS43 KLMK 250210
RWRKY
KENTUCKY REGIONAL WEATHER ROUNDUP
NATIONAL WEATHER SERVICE LOUISVILLE KY
900 PM EST WED DEC 24 2014

NOTE "FAIR" INDICATES FEW OR NO CLOUDS BELOW 12,000 FEET
WITH NO SIGNIFICANT WEATHER AND/OR OBSTRUCTIONS TO VISIBILITY.

KYZ001>023-026-027-061>063-070>075-250300-
WESTERN AND SOUTH CENTRAL KENTUCKY

CITY           SKY/WX    TMP DP  RH WIND       PRES   REMARKS
PADUCAH        CLOUDY    41  35  79 W14       29.85R
HENDERSON      CLOUDY    39  34  81 W10       29.81R WCI  32
OWENSBORO      CLOUDY    40  38  93 W13       29.81R WCI  32
HOPKINSVILLE   CLOUDY    41  37  87 SW13      29.85R
BOWLING GREEN  CLOUDY    42  35  76 W10       29.83R
GLASGOW        CLOUDY    41  35  79 W9G18     29.81R
$$

KYZ024-025-028>034-038-045-046-053-250300-
NORTH CENTRAL KENTUCKY

CITY           SKY/WX    TMP DP  RH WIND       PRES   REMARKS
LOUISVILLE/SDF CLOUDY    42  37  82 W13G23    29.77R
LOUISVILLE/LOU CLOUDY    42  37  82 W13       29.77R
FORT KNOX      CLOUDY    39  36  87 SW10      29.77R WCI  32
$$

KYZ035>037-039>044-047>052-055>060-089>105-250300-
NORTHEAST KENTUCKY

CITY           SKY/WX    TMP DP  RH WIND       PRES   REMARKS
LEXINGTON      CLOUDY    41  38  89 W14       29.74R
COVINGTON      LGT RAIN  40  34  79 W13G21    29.69R WCI  32
FRANKFORT      CLOUDY    41  37  86 W12       29.73R
$$

KYZ054-064>069-076>088-106>120-250300-
SOUTHEAST KENTUCKY

CITY           SKY/WX    TMP DP  RH WIND       PRES   REMARKS
JACKSON        CLOUDY    42  38  85 VRB3      29.74R
LONDON         CLOUDY    44  36  73 SW7       29.78R
SOMERSET       CLOUDY    41  37  87 SW9G16    29.80R
MIDDLESBORO    CLOUDY    45  40  83 W6        29.80R
MONTICELLO     CLOUDY    43  40  89 SW10      29.83R
$$



USA.gov is the U.S. government's official web portal to all federal, state and local government web resources and services.